Decatur, IL

4:45 PM CST on November 23, 2017 (GMT -0600)
Decatur

Weather History for KDEC - September, 2014

Change the Weather History Date:

Sunday, September 7, 2014

  Actual Average Record
Temperature  
Mean Temperature 65 °F 70 °F  
Max Temperature 78 °F 82 °F 95 °F (2015)
Min Temperature 51 °F 58 °F 46 °F (2017)
Degree Days  
Heating Degree Days 0 1  
Month to date heating degree days 1 1  
Since 1 July heating degree days 3 7  
Cooling Degree Days 0 5  
Month to date cooling degree days 58 43  
Year to date cooling degree days 962 961  
Growing Degree Days 13 (Base 50)    
Moisture  
Dew Point 52 °F    
Average Humidity 67    
Maximum Humidity 93    
Minimum Humidity 41    
Precipitation  
Precipitation 0.00 in 0.13 in 1.08 in (2012)
Month to date precipitation 1.08 0.89  
Year to date precipitation 25.01 27.20  
Sea Level Pressure  
Sea Level Pressure 30.18 in    
Wind  
Wind Speed 4 mph (East)    
Max Wind Speed 15 mph    
Max Gust Speed 20 mph    
Visibility 10 miles    
Events      
T = Trace of Precipitation, MM = Missing Value Source: NWS Daily Summary

Daily Weather History Graph

Daily Weather History Graph

Search for Another Location

Airport or City:

Trip Planner

Search our weather history database for the weather conditions in past years. The results will help you decide how hot, cold, wet, or windy it might be!

Date:

Astronomy

Sep. 07, 2014 Rise Set
Actual Time 6:29 AM CDT 7:17 PM CDT
Civil Twilight 6:01 AM CDT 7:44 PM CDT
Nautical Twilight 5:29 AM CDT 8:16 PM CDT
Astronomical Twilight 4:55 AM CDT 8:50 PM CDT
Moon 6:16 PM CDT (9/7) 4:41 AM CDT (9/7)
Length of Visible Light 13h 42m
Length of Day
12h 48m
Waxing Gibbous, 97% of the Moon is Illuminated
Sep 7
Waxing Gibbous
Sep 8
Full
Sep 15
Last Quarter
Sep 24
New
Oct 1
First Quarter

Hourly Weather History & Observations

Time (CDT) Temp. Dew Point Humidity Pressure Visibility Wind Dir Wind Speed Gust Speed Precip Events Conditions
12:54 AM 57.0 °F 53.1 °F 87% 30.20 in 10.0 mi Calm Calm - N/A   Clear
1:54 AM 55.9 °F 52.0 °F 87% 30.19 in 10.0 mi Calm Calm - N/A   Clear
2:54 AM 54.0 °F 51.1 °F 90% 30.19 in 10.0 mi Calm Calm - N/A   Clear
3:54 AM 53.1 °F 50.0 °F 89% 30.19 in 10.0 mi Calm Calm - N/A   Clear
4:54 AM 53.1 °F 51.1 °F 93% 30.20 in 10.0 mi North 3.5 mph - N/A   Clear
5:54 AM 52.0 °F 48.9 °F 89% 30.20 in 10.0 mi Calm Calm - N/A   Clear
6:54 AM 51.1 °F 48.9 °F 92% 30.22 in 10.0 mi Calm Calm - N/A   Clear
7:54 AM 57.0 °F 53.1 °F 87% 30.23 in 10.0 mi Calm Calm - N/A   Clear
8:54 AM 64.0 °F 55.0 °F 73% 30.23 in 10.0 mi NE 3.5 mph - N/A   Clear
9:54 AM 69.1 °F 54.0 °F 58% 30.24 in 10.0 mi East 3.5 mph - N/A   Clear
10:54 AM 72.0 °F 53.1 °F 51% 30.23 in 10.0 mi East 6.9 mph - N/A   Clear
11:54 AM 73.0 °F 51.1 °F 46% 30.22 in 10.0 mi ESE 9.2 mph - N/A   Clear
12:54 PM 75.0 °F 50.0 °F 41% 30.20 in 10.0 mi East 10.4 mph - N/A   Clear
1:54 PM 75.9 °F 52.0 °F 43% 30.19 in 10.0 mi ENE 8.1 mph - N/A   Clear
2:54 PM 75.9 °F 53.1 °F 45% 30.17 in 10.0 mi East 9.2 mph - N/A   Scattered Clouds
3:54 PM 75.9 °F 50.0 °F 40% 30.15 in 10.0 mi East 8.1 mph - N/A   Clear
4:54 PM 75.9 °F 51.1 °F 42% 30.14 in 10.0 mi East 5.8 mph - N/A   Clear
5:54 PM 75.0 °F 52.0 °F 44% 30.13 in 10.0 mi East 9.2 mph - N/A   Clear
6:54 PM 70.0 °F 55.0 °F 59% 30.12 in 10.0 mi East 4.6 mph - N/A   Clear
7:54 PM 62.1 °F 55.9 °F 80% 30.12 in 10.0 mi Calm Calm - N/A   Clear
8:54 PM 63.0 °F 54.0 °F 72% 30.13 in 10.0 mi Calm Calm - N/A   Clear
9:54 PM 59.0 °F 54.0 °F 83% 30.14 in 10.0 mi ESE 3.5 mph - N/A   Clear
11:54 PM 57.9 °F 53.1 °F 84% 30.14 in 10.0 mi Calm Calm - N/A   Clear